Theta_e
290 285 282 283 286 286 284 282 280 283 288 286 283 283 285 286 286 285 285 286 287 288 290 292 294 295 294 295 297 297 299 300 302 303 304 308 312 318 321 326 325 324 324 323
285 283 288 290 289 287 285 281 280 284 288 286 284 283 285 286 285 286 285 285 286 287 289 291 291 292 293 293 294 295 296 298 299 301 303 306 306 310 314 321 324 325 323 322
282 286 291 289 286 285 283 281 280 281 286 286 283 279 282 286 286 287 287 287 287 286 287 288 290 289 290 291 292 293 295 296 297 297 300 303 308 311 314 314 318 320 324 323
285 290 288 286 285 285 282 286 285 284 280 276 283 272 280 284 284 285 285 285 286 285 287 288 288 289 289 290 292 292 293 294 295 296 296 297 300 301 306 306 309 312 321 324
283 285 284 283 285 287 283 287 285 283 281 278 280 273 278 283 282 283 284 286 286 285 286 286 288 289 289 290 289 291 292 293 293 294 295 295 296 299 302 305 306 310 315 323
284 289 286 285 288 288 289 285 283 282 279 268 279 275 275 280 283 283 284 285 285 285 285 286 287 289 288 289 289 290 290 291 292 293 294 294 294 296 298 302 304 307 310 314
281 283 286 288 284 286 284 277 266 268 267 269 278 275 278 283 284 285 285 285 284 284 284 285 285 286 287 287 288 289 289 289 290 290 292 293 294 295 296 299 302 304 307 309
269 271 282 287 284 282 283 279 269 265 266 270 278 275 279 285 286 287 287 285 285 284 285 285 284 285 286 287 288 289 289 288 290 290 290 293 295 295 296 297 299 301 303 308
268 272 284 285 286 284 280 275 282 270 269 274 275 279 282 285 285 286 286 285 283 283 284 284 285 284 285 286 287 288 289 289 290 290 291 293 294 295 296 297 299 300 304 308
275 269 279 283 286 285 283 285 273 271 262 263 270 274 278 282 283 284 284 283 284 284 283 284 284 284 284 285 287 289 289 288 289 290 291 292 293 294 296 298 300 302 305 306
277 272 274 281 276 278 280 275 281 279 275 266 263 272 281 282 284 284 285 285 284 285 284 283 283 283 283 284 285 288 288 288 288 289 290 291 291 293 294 295 297 299 301 302
282 275 269 272 281 284 282 280 280 270 267 271 271 272 283 284 285 286 285 287 285 285 284 283 283 282 281 282 283 285 287 288 288 289 290 289 290 291 292 292 294 296 297 298
284 272 266 270 275 280 278 282 282 279 275 268 267 270 283 284 285 286 285 286 286 285 283 282 281 281 280 281 282 283 283 284 288 288 288 288 288 289 290 291 292 293 294 295
286 270 270 271 274 277 274 275 282 276 265 269 271 272 279 277 278 281 281 281 281 281 284 281 280 280 279 280 281 282 283 284 286 286 287 287 287 288 288 289 290 291 292 292
283 270 267 272 276 277 277 273 273 272 276 269 270 272 279 279 278 278 279 283 283 285 279 278 277 280 279 276 279 282 282 283 284 287 284 286 286 287 287 287 288 289 289 290
283 273 271 269 270 272 271 274 274 269 270 274 277 277 284 284 283 280 280 281 284 283 279 278 277 281 277 274 277 282 279 282 283 283 285 286 286 286 286 286 287 287 287 287
280 274 266 267 268 267 270 270 274 275 277 278 272 278 282 283 285 283 284 283 282 283 283 281 283 279 278 278 282 280 281 282 282 282 282 285 285 285 285 285 285 285 285 286
278 275 270 266 267 267 277 277 278 276 277 280 281 281 283 285 287 287 288 286 285 285 285 285 283 282 280 280 277 282 282 281 282 282 283 285 284 283 283 284 283 283 284 284
281 277 265 266 259 274 276 279 277 277 277 281 281 283 283 284 286 287 289 289 288 287 286 286 284 282 280 280 280 281 281 280 280 280 283 282 281 280 280 280 280 280 281 282
280 278 272 260 263 268 279 280 283 282 275 282 283 283 283 285 281 282 286 287 288 288 287 284 283 282 280 280 280 281 280 280 279 280 281 281 281 280 279 280 280 280 281 281
267 266 267 261 262 272 279 281 284 274 279 285 284 284 285 284 287 286 286 286 286 286 285 283 281 280 280 279 280 280 279 278 279 278 279 279 280 280 280 280 279 279 279 279
272 269 266 263 262 271 282 283 280 282 285 286 286 286 286 287 287 286 286 287 286 285 283 282 280 280 279 279 280 279 278 278 276 276 275 275 275 280 279 276 276 276 276 275
275 277 274 276 277 282 285 283 286 287 286 286 286 287 288 287 287 287 286 285 286 285 284 282 280 278 274 275 276 276 275 274 273 272 271 272 273 276 277 276 274 274 273 273
277 279 276 277 282 282 283 286 285 286 287 286 287 288 287 288 288 288 287 285 284 284 282 279 276 276 276 274 275 276 272 273 272 271 271 271 272 272 273 277 277 275 273 272
278 279 276 277 281 281 283 283 286 286 286 286 286 288 288 288 288 287 287 286 285 283 280 279 280 280 279 275 275 273 272 272 272 271 272 273 274 274 274 275 275 276 275 276
278 278 280 281 285 286 286 285 284 284 284 284 284 283 285 286 287 286 286 286 285 284 279 279 280 280 281 275 276 273 272 273 273 273 273 274 274 272 273 273 270 281 281 283
Wind_Speed
7 10 5 5 3 3 2 1 3 5 3 5 1 3 3 1 5 5 5 5 6 6 4 6 7 6 7 9 10 11 10 9 7 5 4 3 2 4 5 2 3 6 6 8
7 6 5 3 7 5 5 3 5 7 5 4 2 2 3 2 0 1 3 4 4 4 5 5 7 7 7 9 10 10 10 9 8 5 4 3 4 3 3 5 4 6 6 8
6 1 6 3 5 4 2 4 2 4 9 2 2 3 3 1 2 2 2 2 2 3 3 4 5 5 6 7 10 9 8 8 8 9 5 3 3 4 3 6 7 5 5 7
6 5 4 4 2 2 2 3 1 4 5 2 3 4 4 4 4 1 3 3 2 2 2 2 3 5 5 5 7 9 9 8 7 8 7 8 4 3 3 3 5 8 7 5
1 6 5 3 3 2 4 3 2 1 3 3 4 4 6 4 5 5 4 5 3 1 2 3 4 4 4 4 6 6 8 7 8 7 4 4 4 5 5 5 6 6 8 7
3 2 1 3 5 4 6 1 5 4 2 4 4 4 5 4 3 3 3 5 3 1 2 4 3 3 4 5 5 5 7 6 8 7 6 6 5 6 5 6 4 4 4 4
6 2 4 3 5 4 6 5 5 7 7 5 4 2 8 3 4 5 5 6 3 2 3 4 5 5 5 6 6 5 6 7 6 6 6 5 5 5 4 6 5 6 4 3
3 8 4 6 3 3 5 3 6 4 2 6 5 4 4 3 4 4 5 2 1 3 4 5 4 4 5 5 5 7 7 5 6 6 5 5 5 3 3 4 4 4 4 4
5 6 3 2 1 3 6 5 2 6 2 2 5 7 2 2 4 4 6 5 4 2 3 5 5 4 6 5 5 7 8 8 7 8 7 6 6 6 5 6 5 4 5 5
3 4 1 4 2 2 2 2 4 4 4 5 6 6 5 4 3 3 4 7 7 5 2 3 5 5 4 5 6 5 6 7 8 7 7 6 6 6 6 6 6 6 5 7
6 6 7 3 1 2 3 3 2 4 3 5 2 8 6 5 6 6 7 7 7 6 3 2 3 4 5 5 6 5 5 6 7 6 6 6 6 6 6 5 6 6 6 6
3 6 4 8 5 3 1 2 2 6 6 1 3 11 3 4 5 6 7 6 5 4 4 2 1 3 5 5 5 5 6 5 5 6 7 6 6 7 7 6 7 6 6 5
7 2 5 10 6 5 2 4 2 4 4 5 6 10 2 5 7 8 7 7 6 3 3 2 2 3 3 5 5 6 5 6 5 5 6 6 7 7 7 7 7 7 6 6
4 5 7 7 6 4 3 3 5 5 4 4 8 9 11 7 8 9 8 7 6 4 6 4 3 3 3 3 4 5 5 5 5 6 6 7 7 7 7 7 8 8 8 8
1 4 4 6 7 3 5 5 5 8 6 7 5 8 14 9 8 8 6 5 4 7 7 6 4 4 4 4 4 4 4 5 5 4 5 6 6 6 7 7 7 8 9 8
1 2 4 6 4 2 6 8 9 3 4 11 11 20 12 9 4 4 8 4 6 8 7 7 5 6 6 5 4 4 3 2 3 5 5 5 5 5 6 6 7 8 9 8
4 4 4 5 6 7 9 10 14 6 6 11 7 13 3 3 7 7 7 7 8 8 8 7 7 7 5 5 4 4 3 1 2 2 3 3 3 4 5 4 6 7 7 7
6 3 3 4 6 4 7 4 8 7 6 18 9 7 6 6 6 8 8 7 9 8 8 7 6 6 5 4 4 2 1 1 2 2 3 3 4 4 4 4 6 6 5 7
1 5 3 4 4 10 2 7 10 10 8 17 19 15 7 4 6 13 11 12 10 8 8 7 6 5 5 6 5 4 2 1 1 2 3 4 4 4 4 5 4 3 5 6
4 5 5 4 5 7 5 3 6 3 7 8 14 9 6 6 1 6 6 2 7 7 6 8 8 5 6 6 6 5 4 2 1 1 3 3 3 4 3 4 3 2 5 5
3 2 6 3 3 13 6 4 6 7 8 6 8 7 8 7 7 3 1 3 3 4 7 7 7 8 7 6 6 6 5 6 4 3 1 2 3 2 1 2 1 3 5 5
10 10 6 4 2 12 8 5 8 5 0 5 5 6 8 7 4 5 5 4 5 7 5 6 7 7 7 7 6 6 7 5 5 5 3 2 3 2 2 3 2 4 4 5
6 10 10 13 12 3 12 6 7 2 4 5 5 6 9 8 8 7 7 7 8 8 8 6 7 6 5 6 6 6 6 6 5 5 5 4 3 4 4 4 3 3 3 3
6 5 4 3 5 13 10 10 8 7 8 4 4 4 6 7 7 8 8 7 8 8 9 6 7 8 9 8 8 7 5 7 7 6 5 4 5 4 3 2 3 3 3 3
6 11 7 7 9 6 11 12 13 11 10 8 7 8 11 8 9 8 7 8 9 8 7 9 11 11 13 8 11 8 7 8 6 6 5 5 4 6 5 4 4 4 3 4
8 10 8 10 9 7 5 3 7 12 13 12 9 7 10 10 13 8 9 8 7 9 6 7 11 11 12 10 11 9 9 11 9 7 6 6 6 4 3 4 1 5 6 9
Wind_Direction
12 63 42 352 345 216 188 110 321 293 263 5 26 197 226 24 69 62 57 37 28 29 18 10 2 12 0 0 6 10 6 2 36 1 4 316 325 348 337 351 304 176 174 175
36 59 330 329 4 56 57 45 338 287 290 344 287 294 200 237 113 116 115 75 42 29 26 11 2 5 6 354 0 3 2 2 13 28 333 324 335 315 305 323 290 265 179 183
100 10 327 95 26 45 67 105 303 248 317 288 329 3 207 246 125 87 45 36 50 40 44 7 9 9 1 358 349 353 359 2 14 11 352 333 313 298 334 3 346 329 216 207
73 334 28 27 84 339 160 190 315 317 3 321 37 279 252 208 213 241 309 323 343 46 37 9 18 26 0 350 352 340 348 0 6 3 3 355 357 332 5 309 301 308 289 208
232 11 358 4 308 300 230 279 241 136 317 350 340 72 269 130 243 237 258 266 292 39 69 35 29 17 357 358 353 334 337 346 354 354 1 346 346 321 317 304 311 316 331 248
78 107 48 292 298 249 295 90 46 55 41 32 276 109 279 203 224 199 223 261 275 325 35 39 39 12 339 352 345 332 347 332 358 337 341 347 329 324 329 311 299 322 314 312
337 26 331 36 323 331 28 49 356 2 9 225 338 17 244 221 198 202 226 257 245 355 3 20 17 355 344 347 339 336 356 338 342 334 337 324 309 305 310 318 330 338 312 341
94 336 14 345 62 302 339 94 141 198 320 293 314 242 271 214 184 208 213 218 209 348 343 353 12 359 345 348 339 347 354 339 336 330 328 310 318 302 291 288 303 300 303 293
102 299 326 8 351 96 310 36 145 98 66 306 271 295 280 223 265 247 237 170 204 241 316 334 351 21 356 341 352 351 347 348 343 337 331 324 331 327 313 303 283 280 292 299
176 6 272 287 5 336 52 184 41 8 48 316 302 292 252 248 187 166 174 209 218 214 244 324 339 356 7 342 326 347 346 340 335 337 329 330 335 325 316 310 328 324 326 320
122 101 285 5 283 178 0 359 54 111 119 152 291 274 218 225 197 219 224 220 224 210 203 266 327 340 346 354 339 327 341 339 338 330 335 339 342 338 335 336 335 335 332 336
164 131 263 223 260 308 242 224 142 121 271 200 166 274 295 251 222 226 244 239 222 191 178 231 316 340 340 340 334 330 329 340 341 337 343 353 359 360 360 358 355 353 6 8
170 78 356 340 353 355 233 211 151 105 73 211 141 263 331 303 277 261 266 256 232 216 209 257 288 302 324 322 324 327 333 330 343 359 2 8 9 12 13 11 9 19 29 31
115 113 162 206 210 137 199 237 174 126 117 196 231 291 292 279 269 288 280 270 245 231 260 247 263 256 278 294 304 317 326 337 343 5 18 18 13 17 22 20 21 27 33 40
102 136 133 260 258 264 226 187 192 184 195 175 248 227 273 266 257 261 261 290 277 253 248 243 221 247 261 283 305 308 325 344 352 25 24 24 13 24 35 33 30 35 39 40
226 152 103 294 313 324 256 225 208 202 242 272 269 285 267 281 226 259 252 221 248 254 246 246 227 233 233 224 250 283 284 322 31 24 31 25 20 20 30 35 38 47 43 43
162 129 76 263 324 328 304 214 181 192 211 188 189 227 256 283 267 265 257 212 220 232 237 222 231 225 218 201 204 236 260 283 97 71 32 45 39 42 39 36 56 52 54 55
134 93 95 242 16 314 243 148 178 198 213 214 261 237 210 230 255 266 249 234 227 216 221 215 210 217 213 187 187 206 187 128 102 70 46 35 60 53 35 40 62 56 54 59
118 126 92 120 181 291 243 192 167 181 274 203 219 247 219 253 306 291 243 213 217 205 201 198 188 180 188 189 179 176 150 113 105 80 45 39 65 79 70 65 61 62 62 62
69 65 109 96 141 230 250 203 150 180 294 182 193 226 196 148 120 260 323 284 222 201 171 172 170 159 179 200 166 164 182 174 176 100 72 53 77 96 106 106 101 77 77 77
101 24 170 161 214 282 243 152 144 89 232 155 180 192 158 188 203 215 142 313 188 208 178 155 166 177 195 178 166 185 176 206 179 150 119 88 87 105 140 120 81 98 89 87
163 148 190 90 109 269 146 74 176 219 330 142 173 192 196 227 247 234 246 189 196 174 177 185 172 198 190 183 173 191 206 191 164 148 141 129 127 127 108 91 48 70 85 86
217 183 179 190 209 233 198 194 223 220 194 194 176 190 200 216 225 217 226 223 199 207 191 186 201 197 208 194 186 194 216 162 165 157 177 182 166 141 150 132 121 96 86 91
240 196 196 88 245 227 224 247 245 212 226 233 228 189 187 220 222 224 219 219 218 196 207 181 173 214 218 199 203 210 174 165 162 181 191 187 171 163 161 155 161 145 158 150
186 144 175 269 271 275 245 225 240 230 227 244 235 224 229 220 243 227 231 224 218 213 193 179 197 209 226 195 206 193 182 162 185 189 183 198 197 185 174 186 178 178 202 174
194 173 174 216 202 177 219 196 195 216 223 221 216 235 234 208 234 212 233 225 210 215 186 199 208 209 220 195 213 194 178 180 179 193 201 194 186 192 187 171 210 224 201 203